Weather History for Salem, OR

Change the Weather History Date:

Wednesday, April 24, 2013

  Actual Average Record
Temperature  
Mean Temperature 55 °F 52 °F  
Max Temperature 74 °F 63 °F 84 °F (1910)
Min Temperature 36 °F 40 °F 28 °F (1986)
Degree Days  
Heating Degree Days 10 13  
Month to date heating degree days 341 363  
Since 1 July heating degree days 3933 4166  
Cooling Degree Days 0 0  
Month to date cooling degree days 0 0  
Year to date cooling degree days 0 0  
Growing Degree Days 4 (Base 50)    
Moisture  
Dew Point 35 °F    
Average Humidity 57    
Maximum Humidity 92    
Minimum Humidity 22    
Precipitation  
Precipitation 0.00 in 0.08 in 0.42 in (2014)
Month to date precipitation 2.34 2.36  
Year to date precipitation 7.60 16.87  
Snow  
Snow 0.00 in - - ()
Month to date snowfall 0.0  
Snow Depth 0.00 in    
Sea Level Pressure  
Sea Level Pressure 30.13 in    
Wind  
Wind Speed 7 mph (North)    
Max Wind Speed 20 mph    
Max Gust Speed 22 mph    
Visibility 10 miles    
Events      
T = Trace of Precipitation, MM = Missing Value Source: NWS Daily Summary

Daily Weather History Graph

Daily Weather History Graph

Search for Another Location

Airport:

Trip Planner

Search our weather history database for the weather conditions in past years. The results will help you decide how hot, cold, wet, or windy it might be!

Date:

Astronomy

Apr. 24, 2013 Rise Set
Actual Time 6:11 AM PDT 8:09 PM PDT
Civil Twilight 5:40 AM PDT 8:40 PM PDT
Nautical Twilight 5:01 AM PDT 9:19 PM PDT
Astronomical Twilight 4:19 AM PDT 10:02 PM PDT
Moon 7:17 PM PDT (4/24) 5:21 AM PDT (4/24)
Length of Visible Light 15h 00m
Length of Day
13h 57m
Waxing Gibbous, 98% of the Moon is Illuminated
Apr 24
Waxing Gibbous
Apr 25
Full
May 2
Last Quarter
May 9
New
May 17
First Quarter

Hourly Weather History & Observations

Time (PDT) Temp. Windchill Dew Point Humidity Pressure Visibility Wind Dir Wind Speed Gust Speed Precip Events Conditions
12:56 AM 45.0 °F - 36.0 °F 71% 30.22 in 10.0 mi Calm Calm - N/A   Clear
1:56 AM 46.0 °F 44.8 °F 37.0 °F 71% 30.22 in 10.0 mi WSW 3.5 mph - N/A   Clear
2:56 AM 46.9 °F - 35.1 °F 63% 30.21 in 10.0 mi Calm Calm - N/A   Clear
3:56 AM 41.0 °F - 34.0 °F 76% 30.22 in 10.0 mi Calm Calm - N/A   Clear
4:56 AM 39.0 °F - 34.0 °F 82% 30.22 in 10.0 mi Calm Calm - N/A   Clear
5:56 AM 37.0 °F - 33.1 °F 86% 30.22 in 10.0 mi Calm Calm - N/A   Clear
6:56 AM 37.9 °F - 35.1 °F 89% 30.23 in 10.0 mi Calm Calm - N/A   Clear
7:56 AM 46.9 °F - 36.0 °F 66% 30.24 in 10.0 mi Calm Calm - N/A   Clear
8:56 AM 52.0 °F - 36.0 °F 54% 30.22 in 10.0 mi North 6.9 mph - N/A   Clear
9:56 AM 57.0 °F - 37.9 °F 49% 30.20 in 10.0 mi North 6.9 mph - N/A   Clear
10:56 AM 62.1 °F - 37.9 °F 41% 30.19 in 10.0 mi North 8.1 mph - N/A   Clear
11:56 AM 66.9 °F - 37.0 °F 33% 30.17 in 10.0 mi NNW 11.5 mph - N/A   Clear
12:56 PM 70.0 °F - 36.0 °F 29% 30.14 in 10.0 mi North 11.5 mph - N/A   Clear
1:56 PM 72.0 °F - 35.1 °F 26% 30.11 in 10.0 mi North 11.5 mph 17.3 mph N/A   Clear
2:56 PM 73.0 °F - 35.1 °F 25% 30.09 in 10.0 mi North 16.1 mph 20.7 mph N/A   Clear
3:56 PM 73.0 °F - 35.1 °F 25% 30.06 in 10.0 mi North 16.1 mph 21.9 mph N/A   Clear
4:56 PM 73.0 °F - 33.1 °F 23% 30.04 in 10.0 mi North 15.0 mph 20.7 mph N/A   Clear
5:56 PM 73.0 °F - 33.1 °F 23% 30.02 in 10.0 mi NNE 13.8 mph - N/A   Clear
6:56 PM 72.0 °F - 30.9 °F 22% 30.01 in 10.0 mi North 11.5 mph - N/A   Clear
7:56 PM 66.0 °F - 30.9 °F 27% 30.00 in 10.0 mi North 8.1 mph - N/A   Clear
8:56 PM 64.9 °F - 30.9 °F 28% 30.01 in 10.0 mi North 10.4 mph - N/A   Clear
9:56 PM 61.0 °F - 33.1 °F 35% 30.03 in 10.0 mi NE 4.6 mph - N/A   Clear
10:56 PM 55.0 °F - 36.0 °F 49% 30.02 in 10.0 mi NW 3.5 mph - N/A   Clear
11:56 PM 48.9 °F - 37.0 °F 64% 30.01 in 10.0 mi Calm Calm - N/A   Clear